Tracking 29487 objects as of 11-Sep-2024
HD Live streaming from Space Station
objects crossing your sky now

COSMOS 1867 COOLANT

Track COSMOS 1867 COOLANT now!
10-day predictions


NORAD ID: 39643
Int'l Code: 1987-060L
Perigee: 772.6 km
Apogee: 801.4 km
Inclination: 65.0 °
Period: 100.4 minutes
Semi major axis: 7157 km
RCS: Unknown
Launch date: July 10, 1987
Source: Commonwealth of Independent States (former USSR) (CIS)
Launch site: TYURATAM MISSILE AND SPACE COMPLEX (TTMTR)

Note: This is SATELLITE DEBRIS
Your satellite tracking list
Your tracking list is empty




NASA's NSSDC Master Catalog

Two Line Element Set (TLE):
1 39643U 87060L   24253.04485234  .00002494  00000-0  93328-3 0  9999
2 39643  65.0122  20.4539 0020084 263.5358  96.3440 14.33558709545108
Source of the keplerian elements: AFSPC